contact:dominique.lefevre@mio.osupytheas.fr, maurice.libes@osupytheas.fr, didier.mallarino@osupytheas.fr
Project:EMSO http://www.emso-fr.org/EMSO-France
Depth: 2436.0 m
Title:EMSO Ligure Ouest : Data MII capteur MICROCAT
DateTime_Computer,Latitude,Longitude,Temperature,Conductivity,Pressure,DateTime_Instrument
DateTime_Computer,Latitude,Longitude,degC,S m-1,dbar,DateTime_Instrument
2019-08-05T00:01:37Z,42.805,6.029,13.2969,4.59999,2469.993,2019-8-05T02:01:57Z
2019-08-05T00:04:40Z,42.805,6.029,13.2980,4.60002,2469.947,2019-8-05T02:05:00Z
2019-08-05T00:07:43Z,42.805,6.029,13.2968,4.59996,2469.97,2019-8-05T02:08:03Z
2019-08-05T00:10:47Z,42.805,6.029,13.2979,4.60020,2469.937,2019-8-05T02:11:06Z
2019-08-05T00:13:50Z,42.805,6.029,13.2991,4.60052,2469.984,2019-8-05T02:14:10Z
2019-08-05T00:16:53Z,42.805,6.029,13.2978,4.60028,2469.984,2019-8-05T02:17:13Z
2019-08-05T00:19:56Z,42.805,6.029,13.2984,4.60008,2469.984,2019-8-05T02:20:16Z
2019-08-05T00:22:59Z,42.805,6.029,13.2990,4.60018,2469.96,2019-8-05T02:23:19Z
2019-08-05T00:26:03Z,42.805,6.029,13.2995,4.60024,2469.937,2019-8-05T02:26:22Z
2019-08-05T00:29:06Z,42.805,6.029,13.3011,4.60026,2469.96,2019-8-05T02:29:26Z
2019-08-05T00:32:09Z,42.805,6.029,13.2982,4.60014,2469.96,2019-8-05T02:32:29Z
2019-08-05T00:35:12Z,42.805,6.029,13.2992,4.60011,2469.984,2019-8-05T02:35:32Z
2019-08-05T00:38:15Z,42.805,6.029,13.2993,4.60010,2469.937,2019-8-05T02:38:35Z
2019-08-05T00:41:19Z,42.805,6.029,13.2998,4.60008,2469.923,2019-8-05T02:41:38Z
2019-08-05T00:44:22Z,42.805,6.029,13.2989,4.60022,2469.923,2019-8-05T02:44:42Z
2019-08-05T00:47:25Z,42.805,6.029,13.2996,4.60017,2469.947,2019-8-05T02:47:45Z
2019-08-05T00:50:28Z,42.805,6.029,13.2992,4.60020,2469.937,2019-8-05T02:50:48Z
2019-08-05T00:53:31Z,42.805,6.029,13.3005,4.59997,2469.923,2019-8-05T02:53:51Z
2019-08-05T00:56:35Z,42.805,6.029,13.3001,4.59988,2469.9,2019-8-05T02:56:54Z
2019-08-05T00:59:38Z,42.805,6.029,13.2986,4.60024,2469.96,2019-8-05T02:59:58Z
2019-08-05T01:02:41Z,42.805,6.029,13.2996,4.60003,2469.9,2019-8-05T03:03:01Z
2019-08-05T01:05:44Z,42.805,6.029,13.2995,4.60011,2469.923,2019-8-05T03:06:04Z
2019-08-05T01:08:47Z,42.805,6.029,13.2985,4.60019,2469.923,2019-8-05T03:09:07Z
2019-08-05T01:11:51Z,42.805,6.029,13.2983,4.60021,2469.923,2019-8-05T03:12:10Z
2019-08-05T01:14:54Z,42.805,6.029,13.3000,4.60003,2469.937,2019-8-05T03:15:14Z
2019-08-05T01:17:57Z,42.805,6.029,13.3000,4.60013,2469.937,2019-8-05T03:18:17Z
2019-08-05T01:21:00Z,42.805,6.029,13.2986,4.60014,2469.89,2019-8-05T03:21:20Z
2019-08-05T01:24:03Z,42.805,6.029,13.2984,4.60014,2469.914,2019-8-05T03:24:23Z
2019-08-05T01:27:07Z,42.805,6.029,13.2979,4.60007,2469.9,2019-8-05T03:27:26Z
2019-08-05T01:30:10Z,42.805,6.029,13.2991,4.60014,2469.876,2019-8-05T03:30:30Z
2019-08-05T01:33:13Z,42.805,6.029,13.2986,4.59997,2469.937,2019-8-05T03:33:33Z
2019-08-05T01:36:16Z,42.805,6.029,13.2983,4.60008,2469.9,2019-8-05T03:36:36Z
2019-08-05T01:39:19Z,42.805,6.029,13.2995,4.60009,2469.923,2019-8-05T03:39:39Z
2019-08-05T01:42:23Z,42.805,6.029,13.3001,4.60018,2469.9,2019-8-05T03:42:42Z
2019-08-05T01:45:26Z,42.805,6.029,13.2983,4.60024,2469.914,2019-8-05T03:45:46Z
2019-08-05T01:48:29Z,42.805,6.029,13.2997,4.60019,2469.9,2019-8-05T03:48:49Z
2019-08-05T01:51:32Z,42.805,6.029,13.3009,4.60013,2469.876,2019-8-05T03:51:52Z
2019-08-05T01:54:35Z,42.805,6.029,13.2986,4.60008,2469.9,2019-8-05T03:54:55Z
2019-08-05T01:57:39Z,42.805,6.029,13.2986,4.60007,2469.9,2019-8-05T03:57:58Z
2019-08-05T02:00:42Z,42.805,6.029,13.3005,4.60031,2469.89,2019-8-05T04:01:02Z
2019-08-05T02:03:45Z,42.805,6.029,13.2997,4.60019,2469.867,2019-8-05T04:04:05Z
2019-08-05T02:06:48Z,42.805,6.029,13.2992,4.60019,2469.89,2019-8-05T04:07:08Z
2019-08-05T02:09:52Z,42.805,6.029,13.2962,4.59992,2469.876,2019-8-05T04:10:12Z
2019-08-05T02:12:55Z,42.805,6.029,13.2965,4.60004,2469.9,2019-8-05T04:13:15Z
2019-08-05T02:15:58Z,42.805,6.029,13.2987,4.60009,2469.876,2019-8-05T04:16:18Z
2019-08-05T02:19:01Z,42.805,6.029,13.2996,4.60043,2469.89,2019-8-05T04:19:21Z
2019-08-05T02:22:05Z,42.805,6.029,13.2994,4.60019,2469.867,2019-8-05T04:22:25Z
2019-08-05T02:25:08Z,42.805,6.029,13.2984,4.60024,2469.9,2019-8-05T04:25:28Z
2019-08-05T02:28:11Z,42.805,6.029,13.2982,4.60024,2469.867,2019-8-05T04:28:31Z
2019-08-05T02:31:15Z,42.805,6.029,13.2974,4.59999,2469.83,2019-8-05T04:31:35Z
2019-08-05T02:34:18Z,42.805,6.029,13.2982,4.60024,2469.853,2019-8-05T04:34:38Z
2019-08-05T02:37:21Z,42.805,6.029,13.2979,4.60009,2469.876,2019-8-05T04:37:41Z
2019-08-05T02:40:24Z,42.805,6.029,13.2992,4.60026,2469.876,2019-8-05T04:40:44Z
2019-08-05T02:43:28Z,42.805,6.029,13.2990,4.60014,2469.853,2019-8-05T04:43:48Z
2019-08-05T02:46:31Z,42.805,6.029,13.2970,4.60011,2469.89,2019-8-05T04:46:51Z
2019-08-05T02:49:34Z,42.805,6.029,13.2974,4.59995,2469.853,2019-8-05T04:49:54Z
2019-08-05T02:52:38Z,42.805,6.029,13.2982,4.60018,2469.867,2019-8-05T04:52:58Z
2019-08-05T02:55:41Z,42.805,6.029,13.2976,4.60007,2469.853,2019-8-05T04:56:01Z
2019-08-05T02:58:44Z,42.805,6.029,13.2988,4.59996,2469.853,2019-8-05T04:59:04Z
2019-08-05T03:01:47Z,42.805,6.029,13.2967,4.60001,2469.89,2019-8-05T05:02:07Z
2019-08-05T03:04:51Z,42.805,6.029,13.2960,4.59970,2469.881,2019-8-05T05:05:11Z
2019-08-05T03:07:54Z,42.805,6.029,13.2968,4.59979,2469.844,2019-8-05T05:08:14Z
2019-08-05T03:10:57Z,42.805,6.029,13.2974,4.59986,2469.83,2019-8-05T05:11:17Z
2019-08-05T03:14:01Z,42.805,6.029,13.2967,4.59981,2469.83,2019-8-05T05:14:21Z
2019-08-05T03:17:04Z,42.805,6.029,13.2972,4.59977,2469.83,2019-8-05T05:17:24Z
2019-08-05T03:20:07Z,42.805,6.029,13.2964,4.59983,2469.867,2019-8-05T05:20:27Z
2019-08-05T03:23:11Z,42.805,6.029,13.2974,4.59979,2469.844,2019-8-05T05:23:31Z
2019-08-05T03:26:14Z,42.805,6.029,13.2970,4.59995,2469.83,2019-8-05T05:26:34Z
2019-08-05T03:29:17Z,42.805,6.029,13.2985,4.60002,2469.821,2019-8-05T05:29:37Z
2019-08-05T03:32:21Z,42.805,6.029,13.2973,4.59980,2469.806,2019-8-05T05:32:40Z
2019-08-05T03:35:24Z,42.805,6.029,13.2967,4.59984,2469.83,2019-8-05T05:35:44Z
2019-08-05T03:38:27Z,42.805,6.029,13.2969,4.59984,2469.83,2019-8-05T05:38:47Z
2019-08-05T03:41:30Z,42.805,6.029,13.2977,4.59995,2469.806,2019-8-05T05:41:50Z
2019-08-05T03:44:34Z,42.805,6.029,13.2972,4.60000,2469.806,2019-8-05T05:44:54Z
2019-08-05T03:47:37Z,42.805,6.029,13.2980,4.60000,2469.821,2019-8-05T05:47:57Z
2019-08-05T03:50:40Z,42.805,6.029,13.2979,4.60006,2469.83,2019-8-05T05:51:00Z
2019-08-05T03:53:43Z,42.805,6.029,13.2975,4.60009,2469.821,2019-8-05T05:54:03Z
2019-08-05T03:56:47Z,42.805,6.029,13.2977,4.59994,2469.83,2019-8-05T05:57:07Z
2019-08-05T03:59:50Z,42.805,6.029,13.2974,4.59995,2469.83,2019-8-05T06:00:10Z
2019-08-05T04:02:53Z,42.805,6.029,13.2963,4.59983,2469.821,2019-8-05T06:03:13Z
2019-08-05T04:05:57Z,42.805,6.029,13.2984,4.59988,2469.773,2019-8-05T06:06:17Z
2019-08-05T04:09:00Z,42.805,6.029,13.2983,4.59985,2469.806,2019-8-05T06:09:20Z
2019-08-05T04:12:03Z,42.805,6.029,13.2978,4.60011,2469.806,2019-8-05T06:12:23Z
2019-08-05T04:15:06Z,42.805,6.029,13.2968,4.59992,2469.806,2019-8-05T06:15:26Z
2019-08-05T04:18:10Z,42.805,6.029,13.2975,4.59994,2469.806,2019-8-05T06:18:30Z
2019-08-05T04:21:13Z,42.805,6.029,13.2979,4.60011,2469.844,2019-8-05T06:21:33Z
2019-08-05T04:24:16Z,42.805,6.029,13.2968,4.59999,2469.806,2019-8-05T06:24:36Z
2019-08-05T04:27:20Z,42.805,6.029,13.2974,4.60014,2469.806,2019-8-05T06:27:40Z
2019-08-05T04:30:23Z,42.805,6.029,13.2970,4.59989,2469.783,2019-8-05T06:30:43Z
2019-08-05T04:33:26Z,42.805,6.029,13.2967,4.59978,2469.821,2019-8-05T06:33:46Z
2019-08-05T04:36:29Z,42.805,6.029,13.2969,4.59973,2469.806,2019-8-05T06:36:49Z
2019-08-05T04:39:33Z,42.805,6.029,13.2967,4.59976,2469.844,2019-8-05T06:39:53Z
2019-08-05T04:42:36Z,42.805,6.029,13.2966,4.59974,2469.783,2019-8-05T06:42:56Z
2019-08-05T04:45:39Z,42.805,6.029,13.2971,4.59989,2469.797,2019-8-05T06:45:59Z
2019-08-05T04:48:43Z,42.805,6.029,13.2972,4.59985,2469.783,2019-8-05T06:49:03Z
2019-08-05T04:51:46Z,42.805,6.029,13.2968,4.59994,2469.797,2019-8-05T06:52:06Z
2019-08-05T04:54:49Z,42.805,6.029,13.2967,4.59991,2469.821,2019-8-05T06:55:09Z
2019-08-05T04:57:53Z,42.805,6.029,13.2971,4.59991,2469.783,2019-8-05T06:58:13Z
2019-08-05T05:00:56Z,42.805,6.029,13.2979,4.59986,2469.83,2019-8-05T07:01:16Z
2019-08-05T05:03:59Z,42.805,6.029,13.2976,4.60001,2469.821,2019-8-05T07:04:19Z
2019-08-05T05:07:03Z,42.805,6.029,13.2966,4.59978,2469.76,2019-8-05T07:07:22Z
2019-08-05T05:10:06Z,42.805,6.029,13.2967,4.59983,2469.821,2019-8-05T07:10:26Z
2019-08-05T05:13:09Z,42.805,6.029,13.2970,4.59996,2469.797,2019-8-05T07:13:29Z
2019-08-05T05:16:12Z,42.805,6.029,13.2976,4.59999,2469.76,2019-8-05T07:16:32Z
2019-08-05T05:19:16Z,42.805,6.029,13.2985,4.60003,2469.806,2019-8-05T07:19:36Z
2019-08-05T05:22:19Z,42.805,6.029,13.2963,4.59978,2469.797,2019-8-05T07:22:39Z
2019-08-05T05:25:22Z,42.805,6.029,13.2968,4.59972,2469.797,2019-8-05T07:25:42Z
2019-08-05T05:28:26Z,42.805,6.029,13.2969,4.59983,2469.783,2019-8-05T07:28:46Z
2019-08-05T05:31:29Z,42.805,6.029,13.2981,4.59988,2469.83,2019-8-05T07:31:49Z
2019-08-05T05:34:32Z,42.805,6.029,13.2973,4.59996,2469.797,2019-8-05T07:34:52Z
2019-08-05T05:37:36Z,42.805,6.029,13.2982,4.60012,2469.76,2019-8-05T07:37:55Z
2019-08-05T05:40:39Z,42.805,6.029,13.2979,4.60002,2469.797,2019-8-05T07:40:59Z
2019-08-05T05:43:42Z,42.805,6.029,13.2968,4.59994,2469.783,2019-8-05T07:44:02Z
2019-08-05T05:46:45Z,42.805,6.029,13.2964,4.59980,2469.783,2019-8-05T07:47:05Z
2019-08-05T05:49:49Z,42.805,6.029,13.2984,4.59995,2469.806,2019-8-05T07:50:09Z
2019-08-05T05:52:52Z,42.805,6.029,13.2986,4.60003,2469.783,2019-8-05T07:53:12Z
2019-08-05T05:55:55Z,42.805,6.029,13.2965,4.59988,2469.783,2019-8-05T07:56:15Z
2019-08-05T05:58:59Z,42.805,6.029,13.2971,4.60003,2469.821,2019-8-05T07:59:19Z
2019-08-05T06:02:02Z,42.805,6.029,13.2991,4.60001,2469.821,2019-8-05T08:02:22Z
2019-08-05T06:05:05Z,42.805,6.029,13.2973,4.59996,2469.806,2019-8-05T08:05:25Z
2019-08-05T06:08:09Z,42.805,6.029,13.2980,4.59998,2469.783,2019-8-05T08:08:29Z
2019-08-05T06:11:12Z,42.805,6.029,13.2978,4.59989,2469.783,2019-8-05T08:11:32Z
2019-08-05T06:14:15Z,42.805,6.029,13.2977,4.60000,2469.806,2019-8-05T08:14:35Z
2019-08-05T06:17:18Z,42.805,6.029,13.2975,4.59999,2469.783,2019-8-05T08:17:38Z
2019-08-05T06:20:22Z,42.805,6.029,13.2993,4.59993,2469.853,2019-8-05T08:20:42Z
2019-08-05T06:23:25Z,42.805,6.029,13.2978,4.60006,2469.783,2019-8-05T08:23:45Z
2019-08-05T06:26:28Z,42.805,6.029,13.2979,4.60009,2469.83,2019-8-05T08:26:48Z
2019-08-05T06:29:32Z,42.805,6.029,13.2979,4.60006,2469.83,2019-8-05T08:29:52Z
2019-08-05T06:32:35Z,42.805,6.029,13.2980,4.60004,2469.806,2019-8-05T08:32:55Z
2019-08-05T06:35:38Z,42.805,6.029,13.2981,4.59996,2469.844,2019-8-05T08:35:58Z
2019-08-05T06:38:42Z,42.805,6.029,13.2964,4.59976,2469.821,2019-8-05T08:39:01Z
2019-08-05T06:41:45Z,42.805,6.029,13.2967,4.59973,2469.806,2019-8-05T08:42:05Z
2019-08-05T06:44:48Z,42.805,6.029,13.2964,4.59969,2469.821,2019-8-05T08:45:08Z
2019-08-05T06:47:52Z,42.805,6.029,13.2964,4.59972,2469.83,2019-8-05T08:48:11Z
2019-08-05T06:50:55Z,42.805,6.029,13.2963,4.59980,2469.821,2019-8-05T08:51:15Z
2019-08-05T06:53:58Z,42.805,6.029,13.2968,4.59971,2469.844,2019-8-05T08:54:18Z
2019-08-05T06:57:02Z,42.805,6.029,13.2964,4.59967,2469.797,2019-8-05T08:57:22Z
2019-08-05T07:00:05Z,42.805,6.029,13.2966,4.59973,2469.83,2019-8-05T09:00:25Z
2019-08-05T07:03:09Z,42.805,6.029,13.2964,4.59969,2469.806,2019-8-05T09:03:29Z
2019-08-05T07:06:12Z,42.805,6.029,13.2986,4.59983,2469.83,2019-8-05T09:06:32Z
2019-08-05T07:09:15Z,42.805,6.029,13.2973,4.59991,2469.83,2019-8-05T09:09:35Z
2019-08-05T07:12:19Z,42.805,6.029,13.2974,4.60001,2469.821,2019-8-05T09:12:38Z
2019-08-05T07:15:22Z,42.805,6.029,13.2990,4.59999,2469.867,2019-8-05T09:15:42Z
2019-08-05T07:18:25Z,42.805,6.029,13.2975,4.59994,2469.853,2019-8-05T09:18:45Z
2019-08-05T07:21:28Z,42.805,6.029,13.2964,4.59970,2469.821,2019-8-05T09:21:48Z
2019-08-05T07:24:32Z,42.805,6.029,13.2960,4.59968,2469.853,2019-8-05T09:24:52Z
2019-08-05T07:27:35Z,42.805,6.029,13.2976,4.59986,2469.853,2019-8-05T09:27:55Z
2019-08-05T07:30:38Z,42.805,6.029,13.2976,4.59984,2469.876,2019-8-05T09:30:58Z
2019-08-05T07:33:42Z,42.805,6.029,13.2970,4.59988,2469.853,2019-8-05T09:34:02Z
2019-08-05T07:36:45Z,42.805,6.029,13.2963,4.59981,2469.853,2019-8-05T09:37:05Z
2019-08-05T07:39:48Z,42.805,6.029,13.2959,4.59966,2469.867,2019-8-05T09:40:08Z
2019-08-05T07:42:52Z,42.805,6.029,13.2963,4.59968,2469.867,2019-8-05T09:43:12Z
2019-08-05T07:45:55Z,42.805,6.029,13.2959,4.59973,2469.89,2019-8-05T09:46:15Z
2019-08-05T07:48:58Z,42.805,6.029,13.2967,4.59977,2469.867,2019-8-05T09:49:18Z
2019-08-05T07:52:02Z,42.805,6.029,13.2975,4.59993,2469.876,2019-8-05T09:52:21Z
2019-08-05T07:55:05Z,42.805,6.029,13.2972,4.59997,2469.9,2019-8-05T09:55:25Z
2019-08-05T07:58:08Z,42.805,6.029,13.2972,4.59981,2469.9,2019-8-05T09:58:28Z
2019-08-05T08:01:11Z,42.805,6.029,13.2964,4.59973,2469.876,2019-8-05T10:01:31Z
2019-08-05T08:04:15Z,42.805,6.029,13.2968,4.59977,2469.876,2019-8-05T10:04:35Z
2019-08-05T08:07:18Z,42.805,6.029,13.2970,4.59978,2469.9,2019-8-05T10:07:38Z
2019-08-05T08:10:21Z,42.805,6.029,13.2968,4.59985,2469.9,2019-8-05T10:10:41Z
2019-08-05T08:13:25Z,42.805,6.029,13.2976,4.59988,2469.9,2019-8-05T10:13:45Z
2019-08-05T08:16:28Z,42.805,6.029,13.2976,4.59993,2469.9,2019-8-05T10:16:48Z
2019-08-05T08:19:31Z,42.805,6.029,13.2971,4.59993,2469.9,2019-8-05T10:19:51Z
2019-08-05T08:22:34Z,42.805,6.029,13.2974,4.59988,2469.89,2019-8-05T10:22:54Z
2019-08-05T08:25:38Z,42.805,6.029,13.2978,4.59991,2469.937,2019-8-05T10:25:58Z
2019-08-05T08:28:41Z,42.805,6.029,13.2968,4.59998,2469.914,2019-8-05T10:29:01Z
2019-08-05T08:31:44Z,42.805,6.029,13.2975,4.59995,2469.9,2019-8-05T10:32:04Z
2019-08-05T08:34:48Z,42.805,6.029,13.2975,4.60003,2469.923,2019-8-05T10:35:08Z
2019-08-05T08:37:51Z,42.805,6.029,13.2967,4.59975,2469.9,2019-8-05T10:38:11Z
2019-08-05T08:40:54Z,42.805,6.029,13.2974,4.59975,2469.923,2019-8-05T10:41:14Z
2019-08-05T08:43:57Z,42.805,6.029,13.2964,4.59979,2469.914,2019-8-05T10:44:17Z
2019-08-05T08:47:01Z,42.805,6.029,13.2971,4.59973,2469.923,2019-8-05T10:47:21Z
2019-08-05T08:50:04Z,42.805,6.029,13.2965,4.59970,2469.923,2019-8-05T10:50:24Z
2019-08-05T08:53:07Z,42.805,6.029,13.2965,4.59970,2469.923,2019-8-05T10:53:27Z
2019-08-05T08:56:11Z,42.805,6.029,13.2966,4.59972,2469.923,2019-8-05T10:56:31Z
2019-08-05T08:59:14Z,42.805,6.029,13.2964,4.59977,2469.9,2019-8-05T10:59:34Z
2019-08-05T09:02:17Z,42.805,6.029,13.2963,4.59990,2469.923,2019-8-05T11:02:37Z
2019-08-05T09:05:21Z,42.805,6.029,13.2972,4.59982,2469.96,2019-8-05T11:05:40Z
2019-08-05T09:08:24Z,42.805,6.029,13.2975,4.59996,2469.923,2019-8-05T11:08:44Z
2019-08-05T09:11:27Z,42.805,6.029,13.2977,4.59989,2469.9,2019-8-05T11:11:47Z
2019-08-05T09:14:30Z,42.805,6.029,13.2973,4.59989,2469.923,2019-8-05T11:14:50Z
2019-08-05T09:17:34Z,42.805,6.029,13.2960,4.59972,2469.947,2019-8-05T11:17:54Z
2019-08-05T09:20:37Z,42.805,6.029,13.2967,4.59981,2469.923,2019-8-05T11:20:57Z
2019-08-05T09:23:40Z,42.805,6.029,13.2959,4.59971,2469.923,2019-8-05T11:24:00Z
2019-08-05T09:26:44Z,42.805,6.029,13.2967,4.59971,2469.947,2019-8-05T11:27:04Z
2019-08-05T09:29:47Z,42.805,6.029,13.2966,4.59968,2469.96,2019-8-05T11:30:07Z
2019-08-05T09:32:50Z,42.805,6.029,13.2971,4.59981,2469.947,2019-8-05T11:33:10Z
2019-08-05T09:35:54Z,42.805,6.029,13.2977,4.59986,2469.96,2019-8-05T11:36:14Z
2019-08-05T09:38:57Z,42.805,6.029,13.2972,4.59991,2469.937,2019-8-05T11:39:17Z
2019-08-05T09:42:00Z,42.805,6.029,13.2961,4.59968,2469.947,2019-8-05T11:42:20Z
2019-08-05T09:45:04Z,42.805,6.029,13.2963,4.59966,2469.947,2019-8-05T11:45:23Z
2019-08-05T09:48:07Z,42.805,6.029,13.2971,4.59979,2469.9,2019-8-05T11:48:27Z
2019-08-05T09:51:10Z,42.805,6.029,13.2963,4.59973,2469.9,2019-8-05T11:51:30Z
2019-08-05T09:54:14Z,42.805,6.029,13.2963,4.59969,2469.97,2019-8-05T11:54:33Z
2019-08-05T09:57:17Z,42.805,6.029,13.2965,4.59975,2469.923,2019-8-05T11:57:37Z
2019-08-05T10:00:20Z,42.805,6.029,13.2976,4.59989,2469.923,2019-8-05T12:00:40Z
2019-08-05T10:03:23Z,42.805,6.029,13.2966,4.59979,2469.97,2019-8-05T12:03:43Z
2019-08-05T10:06:27Z,42.805,6.029,13.2967,4.59977,2469.96,2019-8-05T12:06:47Z
2019-08-05T10:09:30Z,42.805,6.029,13.2967,4.59973,2469.951,2019-8-05T12:09:50Z
2019-08-05T10:12:33Z,42.805,6.029,13.2964,4.59971,2469.937,2019-8-05T12:12:53Z
2019-08-05T10:15:37Z,42.805,6.029,13.2971,4.59986,2469.937,2019-8-05T12:15:57Z
2019-08-05T10:18:40Z,42.805,6.029,13.2975,4.59988,2469.947,2019-8-05T12:19:00Z
2019-08-05T10:21:43Z,42.805,6.029,13.2967,4.59972,2469.97,2019-8-05T12:22:03Z
2019-08-05T10:24:47Z,42.805,6.029,13.2981,4.59995,2469.947,2019-8-05T12:25:06Z
2019-08-05T10:27:50Z,42.805,6.029,13.2978,4.60003,2469.947,2019-8-05T12:28:10Z
2019-08-05T10:30:53Z,42.805,6.029,13.2970,4.59980,2469.9,2019-8-05T12:31:13Z
2019-08-05T10:33:56Z,42.805,6.029,13.2968,4.59973,2469.937,2019-8-05T12:34:16Z
2019-08-05T10:37:00Z,42.805,6.029,13.2966,4.59971,2469.937,2019-8-05T12:37:20Z
2019-08-05T10:40:03Z,42.805,6.029,13.2969,4.59998,2469.914,2019-8-05T12:40:23Z
2019-08-05T10:43:06Z,42.805,6.029,13.2969,4.59976,2469.923,2019-8-05T12:43:26Z
2019-08-05T10:46:10Z,42.805,6.029,13.2987,4.60007,2469.96,2019-8-05T12:46:30Z
2019-08-05T10:49:13Z,42.805,6.029,13.2983,4.59999,2469.97,2019-8-05T12:49:33Z
2019-08-05T10:52:16Z,42.805,6.029,13.2967,4.59977,2469.937,2019-8-05T12:52:36Z
2019-08-05T10:55:19Z,42.805,6.029,13.2971,4.59976,2469.947,2019-8-05T12:55:39Z
2019-08-05T10:58:23Z,42.805,6.029,13.2971,4.59978,2469.937,2019-8-05T12:58:43Z
2019-08-05T11:01:26Z,42.805,6.029,13.2971,4.59982,2469.947,2019-8-05T13:01:46Z
2019-08-05T11:04:29Z,42.805,6.029,13.2976,4.59999,2469.923,2019-8-05T13:04:49Z
2019-08-05T11:07:33Z,42.805,6.029,13.2982,4.59994,2469.947,2019-8-05T13:07:53Z
2019-08-05T11:10:36Z,42.805,6.029,13.2981,4.59986,2469.937,2019-8-05T13:10:56Z
2019-08-05T11:13:39Z,42.805,6.029,13.2976,4.60001,2469.937,2019-8-05T13:13:59Z
2019-08-05T11:16:43Z,42.805,6.029,13.2976,4.59999,2469.937,2019-8-05T13:17:03Z
2019-08-05T11:19:46Z,42.805,6.029,13.2977,4.59998,2469.923,2019-8-05T13:20:06Z
2019-08-05T11:22:49Z,42.805,6.029,13.2984,4.60001,2469.923,2019-8-05T13:23:09Z
2019-08-05T11:25:53Z,42.805,6.029,13.2971,4.60003,2469.923,2019-8-05T13:26:12Z
2019-08-05T11:28:56Z,42.805,6.029,13.2976,4.59991,2469.923,2019-8-05T13:29:16Z
2019-08-05T11:31:59Z,42.805,6.029,13.2964,4.59981,2469.914,2019-8-05T13:32:19Z
2019-08-05T11:35:02Z,42.805,6.029,13.2970,4.59972,2469.947,2019-8-05T13:35:22Z
2019-08-05T11:38:05Z,42.805,6.029,13.2967,4.59971,2469.923,2019-8-05T13:38:25Z
2019-08-05T11:41:09Z,42.805,6.029,13.2970,4.59992,2469.914,2019-8-05T13:41:29Z
2019-08-05T11:44:12Z,42.805,6.029,13.2980,4.59999,2469.9,2019-8-05T13:44:32Z
2019-08-05T11:47:15Z,42.805,6.029,13.2977,4.60001,2469.914,2019-8-05T13:47:35Z
2019-08-05T11:50:18Z,42.805,6.029,13.2980,4.59990,2469.923,2019-8-05T13:50:38Z
2019-08-05T11:53:21Z,42.805,6.029,13.2976,4.59996,2469.89,2019-8-05T13:53:41Z
2019-08-05T11:56:25Z,42.805,6.029,13.2964,4.59976,2469.839,2019-8-05T13:56:45Z
2019-08-05T11:59:28Z,42.805,6.029,13.2974,4.59983,2469.923,2019-8-05T13:59:48Z
2019-08-05T12:02:31Z,42.805,6.029,13.2968,4.59974,2469.923,2019-8-05T14:02:51Z
2019-08-05T12:05:34Z,42.805,6.029,13.2969,4.59971,2469.937,2019-8-05T14:05:54Z
2019-08-05T12:08:37Z,42.805,6.029,13.2967,4.59970,2469.89,2019-8-05T14:08:57Z
2019-08-05T12:11:41Z,42.805,6.029,13.2958,4.59971,2469.89,2019-8-05T14:12:01Z
2019-08-05T12:14:44Z,42.805,6.029,13.2969,4.59991,2469.867,2019-8-05T14:15:04Z
2019-08-05T12:17:47Z,42.805,6.029,13.2971,4.59979,2469.876,2019-8-05T14:18:07Z
2019-08-05T12:20:50Z,42.805,6.029,13.2986,4.59999,2469.863,2019-8-05T14:21:10Z
2019-08-05T12:23:53Z,42.805,6.029,13.2973,4.59994,2469.89,2019-8-05T14:24:13Z
2019-08-05T12:26:56Z,42.805,6.029,13.2970,4.59998,2469.89,2019-8-05T14:27:16Z
2019-08-05T12:30:00Z,42.805,6.029,13.2977,4.59988,2469.867,2019-8-05T14:30:20Z
2019-08-05T12:33:03Z,42.805,6.029,13.2970,4.59973,2469.876,2019-8-05T14:33:23Z
2019-08-05T12:36:06Z,42.805,6.029,13.2976,4.59976,2469.853,2019-8-05T14:36:26Z
2019-08-05T12:39:10Z,42.805,6.029,13.2964,4.59970,2469.83,2019-8-05T14:39:30Z
2019-08-05T12:42:13Z,42.805,6.029,13.2966,4.59969,2469.89,2019-8-05T14:42:33Z
2019-08-05T12:45:16Z,42.805,6.029,13.2967,4.59976,2469.937,2019-8-05T14:45:36Z
2019-08-05T12:48:19Z,42.805,6.029,13.2968,4.59985,2469.867,2019-8-05T14:48:39Z
2019-08-05T12:51:22Z,42.805,6.029,13.2971,4.59979,2469.853,2019-8-05T14:51:42Z
2019-08-05T12:54:26Z,42.805,6.029,13.2971,4.59998,2469.853,2019-8-05T14:54:46Z
2019-08-05T12:57:29Z,42.805,6.029,13.2976,4.60001,2469.853,2019-8-05T14:57:49Z
2019-08-05T13:00:32Z,42.805,6.029,13.2984,4.59999,2469.844,2019-8-05T15:00:52Z
2019-08-05T13:03:35Z,42.805,6.029,13.2982,4.60002,2469.858,2019-8-05T15:03:55Z
2019-08-05T13:06:38Z,42.805,6.029,13.2980,4.60001,2469.876,2019-8-05T15:06:58Z
2019-08-05T13:09:42Z,42.805,6.029,13.2976,4.59988,2469.853,2019-8-05T15:10:02Z
2019-08-05T13:12:45Z,42.805,6.029,13.2981,4.59989,2469.89,2019-8-05T15:13:05Z
2019-08-05T13:15:48Z,42.805,6.029,13.2970,4.59985,2469.867,2019-8-05T15:16:08Z
2019-08-05T13:18:51Z,42.805,6.029,13.2966,4.59975,2469.806,2019-8-05T15:19:11Z
2019-08-05T13:21:54Z,42.805,6.029,13.2964,4.59975,2469.853,2019-8-05T15:22:14Z
2019-08-05T13:24:58Z,42.805,6.029,13.2983,4.59993,2469.844,2019-8-05T15:25:18Z
2019-08-05T13:28:01Z,42.805,6.029,13.2966,4.59982,2469.853,2019-8-05T15:28:21Z
2019-08-05T13:31:04Z,42.805,6.029,13.2974,4.59999,2469.853,2019-8-05T15:31:24Z
2019-08-05T13:34:07Z,42.805,6.029,13.2988,4.59983,2469.83,2019-8-05T15:34:27Z
2019-08-05T13:37:10Z,42.805,6.029,13.2974,4.59996,2469.867,2019-8-05T15:37:30Z
2019-08-05T13:40:14Z,42.805,6.029,13.2978,4.59996,2469.844,2019-8-05T15:40:34Z
2019-08-05T13:43:17Z,42.805,6.029,13.2969,4.59998,2469.806,2019-8-05T15:43:37Z
2019-08-05T13:46:20Z,42.805,6.029,13.2971,4.60003,2469.844,2019-8-05T15:46:40Z
2019-08-05T13:49:23Z,42.805,6.029,13.2971,4.59986,2469.821,2019-8-05T15:49:43Z
2019-08-05T13:52:27Z,42.805,6.029,13.2969,4.59980,2469.83,2019-8-05T15:52:46Z
2019-08-05T13:55:30Z,42.805,6.029,13.2969,4.59984,2469.867,2019-8-05T15:55:50Z
2019-08-05T13:58:33Z,42.805,6.029,13.2978,4.59995,2469.806,2019-8-05T15:58:53Z
2019-08-05T14:01:36Z,42.805,6.029,13.2977,4.59983,2469.844,2019-8-05T16:01:56Z
2019-08-05T14:04:39Z,42.805,6.029,13.2967,4.59973,2469.83,2019-8-05T16:04:59Z
2019-08-05T14:07:42Z,42.805,6.029,13.2968,4.59975,2469.821,2019-8-05T16:08:02Z
2019-08-05T14:10:46Z,42.805,6.029,13.2967,4.59977,2469.853,2019-8-05T16:11:06Z
2019-08-05T14:13:49Z,42.805,6.029,13.2977,4.59986,2469.853,2019-8-05T16:14:09Z
2019-08-05T14:16:52Z,42.805,6.029,13.2971,4.60003,2469.806,2019-8-05T16:17:12Z
2019-08-05T14:19:55Z,42.805,6.029,13.2968,4.59976,2469.83,2019-8-05T16:20:15Z
2019-08-05T14:22:58Z,42.805,6.029,13.2968,4.59980,2469.797,2019-8-05T16:23:18Z
2019-08-05T14:26:02Z,42.805,6.029,13.2967,4.59983,2469.844,2019-8-05T16:26:22Z
2019-08-05T14:29:05Z,42.805,6.029,13.2971,4.59988,2469.83,2019-8-05T16:29:25Z
2019-08-05T14:32:08Z,42.805,6.029,13.2969,4.59990,2469.783,2019-8-05T16:32:28Z
2019-08-05T14:35:11Z,42.805,6.029,13.2963,4.59981,2469.83,2019-8-05T16:35:31Z
2019-08-05T14:38:15Z,42.805,6.029,13.2971,4.59988,2469.806,2019-8-05T16:38:35Z
2019-08-05T14:41:18Z,42.805,6.029,13.2967,4.59988,2469.797,2019-8-05T16:41:38Z
2019-08-05T14:44:21Z,42.805,6.029,13.2973,4.59996,2469.797,2019-8-05T16:44:41Z
2019-08-05T14:47:24Z,42.805,6.029,13.2974,4.59994,2469.844,2019-8-05T16:47:44Z
2019-08-05T14:50:27Z,42.805,6.029,13.2982,4.60003,2469.83,2019-8-05T16:50:47Z
2019-08-05T14:53:31Z,42.805,6.029,13.2967,4.59983,2469.83,2019-8-05T16:53:51Z
2019-08-05T14:56:34Z,42.805,6.029,13.2967,4.59997,2469.806,2019-8-05T16:56:54Z
2019-08-05T14:59:37Z,42.805,6.029,13.2964,4.59979,2469.783,2019-8-05T16:59:57Z
2019-08-05T15:02:40Z,42.805,6.029,13.2968,4.60001,2469.821,2019-8-05T17:03:00Z
2019-08-05T15:05:43Z,42.805,6.029,13.2974,4.59976,2469.806,2019-8-05T17:06:03Z
2019-08-05T15:08:47Z,42.805,6.029,13.2965,4.59976,2469.797,2019-8-05T17:09:07Z
2019-08-05T15:11:50Z,42.805,6.029,13.2977,4.59980,2469.821,2019-8-05T17:12:10Z
2019-08-05T15:14:53Z,42.805,6.029,13.2971,4.59987,2469.783,2019-8-05T17:15:13Z